SAUDICOMSAT 7

Last updated on Fri Jun 19 2026 20:04:31 GMT+0000 (Coordinated Universal Time)

1 31119U 07012C 26170.50147246 .00000311 00000+0 64948-4 0 9999 2 31119 98.3778 144.6806 0055447 187.9049 172.1286 14.66111867 22777
UTC large
Height (km)
Speed (km/s)
/
Latitude / Longitude
Inclination (degrees)
Orbital Period (minutes)
Azimuth
Elevation
Range (km)
Doppler Factor

Next 0 passes for location: London (51.5072 / 0.1276)

Sorry there are no passes over London.
SAUDICOMSAT 7